| time (UTC) | temp F | wind direction | speed knots | gust knots | rain 1hr in | rain 24hr in | rain mn in | humidity % | barometer mb |
| 20260503211922 | 52 | 338 | 0.0 | 0.0 | 0.00 | 0.45 | 0.45 | 95 | 986.8 |
| 20260503210924 | 52 | 338 | 0.0 | 0.0 | 0.00 | 0.45 | 0.45 | 95 | 986.7 |
| 20260503205923 | 52 | 317 | 0.0 | 0.0 | 0.00 | 0.45 | 0.45 | 95 | 986.7 |
| 20260503202922 | 52 | 352 | 0.0 | 0.9 | 0.00 | 0.46 | 0.45 | 95 | 986.2 |
| 20260503201924 | 52 | 270 | 0.0 | 0.0 | 0.00 | 0.46 | 0.45 | 94 | 986.0 |
| 20260503194924 | 52 | 22 | 0.0 | 0.0 | 0.00 | 0.51 | 0.45 | 94 | 985.7 |
| 20260503193923 | 52 | 292 | 0.0 | 0.0 | 0.01 | 0.52 | 0.45 | 93 | 985.6 |
| 20260503193117 | 52 | 292 | 0.0 | 0.0 | 0.04 | 0.52 | 0.45 | 93 | 985.6 |
| 20260503192922 | 52 | 292 | 0.0 | 0.0 | 0.04 | 0.52 | 0.45 | 93 | 985.6 |
| 20260503191923 | 52 | 315 | 0.0 | 0.0 | 0.08 | 0.53 | 0.45 | 93 | 985.6 |
| 20260503185924 | 52 | 292 | 0.0 | 0.0 | 0.19 | 0.60 | 0.45 | 93 | 985.3 |
| 20260503184923 | 52 | 270 | 0.0 | 0.9 | 0.19 | 0.63 | 0.45 | 92 | 985.3 |
| 20260503182923 | 53 | 330 | 0.0 | 0.9 | 0.15 | 0.59 | 0.41 | 91 | 985.4 |
| 20260503181921 | 53 | 315 | 0.0 | 0.0 | 0.11 | 0.54 | 0.37 | 90 | 985.5 |
| 20260503180924 | 53 | 0 | 1.7 | 2.6 | 0.05 | 0.48 | 0.31 | 89 | 985.4 |
| 20260503175954 | 53 | 68 | 0.9 | 1.7 | 0.00 | 0.44 | 0.26 | 89 | 985.4 |
| 20260503175923 | 53 | 68 | 0.9 | 1.7 | 0.00 | 0.44 | 0.26 | 89 | 985.4 |
| 20260503174922 | 53 | 176 | 0.0 | 1.7 | 0.00 | 0.44 | 0.26 | 88 | 985.3 |
| 20260503172923 | 54 | 172 | 1.7 | 4.3 | 0.00 | 0.44 | 0.26 | 85 | 985.1 |
| 20260503171922 | 57 | 114 | 0.9 | 1.7 | 0.00 | 0.44 | 0.26 | 86 | 984.8 |
| 20260503170923 | 56 | 37 | 0.0 | 0.9 | 0.00 | 0.44 | 0.26 | 84 | 984.7 |
| 20260503150922 | 58 | 188 | 0.0 | 0.0 | 0.00 | 0.54 | 0.24 | 80 | 984.9 |
| 20260503130923 | 59 | 178 | 0.9 | 1.7 | 0.00 | 0.54 | 0.24 | 82 | 984.7 |
| 20260503072921 | 53 | 159 | 0.0 | 0.9 | 0.00 | 0.33 | 0.02 | 96 | 984.9 |
| 20260503071921 | 53 | 134 | 0.0 | 0.9 | 0.00 | 0.33 | 0.02 | 96 | 985.0 |
| 20260503054923 | 53 | 0 | 0.0 | 0.0 | 0.02 | 0.33 | 0.02 | 96 | 984.6 |
| 20260503053922 | 52 | 0 | 0.0 | 0.0 | 0.02 | 0.33 | 0.02 | 96 | 984.6 |
| 20260503052919 | 52 | 22 | 0.0 | 0.0 | 0.02 | 0.33 | 0.02 | 96 | 984.5 |
| 20260503051922 | 52 | 22 | 0.0 | 0.0 | 0.02 | 0.33 | 0.02 | 96 | 984.5 |
| 20260503050923 | 52 | 22 | 0.0 | 0.0 | 0.00 | 0.31 | 0.00 | 96 | 984.5 |
| 20260503045921 | 52 | 22 | 0.0 | 0.0 | 0.00 | 0.31 | 0.00 | 96 | 984.5 |
| 20260503044922 | 52 | 22 | 0.0 | 0.0 | 0.00 | 0.31 | 0.00 | 96 | 984.5 |
| 20260503043305 | 52 | 22 | 0.0 | 0.0 | 0.00 | 0.31 | 0.00 | 96 | 984.5 |
| 20260503042922 | 52 | 22 | 0.0 | 0.0 | 0.00 | 0.31 | 0.00 | 96 | 984.5 |
| 20260503041922 | 52 | 22 | 0.0 | 0.0 | 0.00 | 0.31 | 0.00 | 96 | 984.6 |
| 20260503035921 | 52 | 22 | 0.0 | 0.0 | 0.00 | 0.31 | 0.00 | 96 | 984.7 |
| 20260503034923 | 52 | 0 | 0.0 | 0.0 | 0.00 | 0.31 | 0.00 | 96 | 984.8 |
| 20260503031921 | 53 | 338 | 0.0 | 0.0 | 0.00 | 0.31 | 0.00 | 96 | 984.9 |
| 20260503030922 | 53 | 338 | 0.0 | 0.0 | 0.00 | 0.31 | 0.00 | 96 | 984.8 |
| 20260503025920 | 53 | 338 | 0.0 | 0.0 | 0.00 | 0.31 | 0.00 | 96 | 985.0 |
| 20260503024921 | 53 | 22 | 0.0 | 0.0 | 0.00 | 0.31 | 0.00 | 96 | 985.0 |
| 20260503022920 | 53 | 22 | 0.0 | 0.0 | 0.00 | 0.31 | 0.00 | 95 | 985.1 |
| 20260503015920 | 53 | 0 | 0.0 | 0.0 | 0.00 | 0.31 | 0.00 | 95 | 985.2 |
| 20260503014921 | 53 | 0 | 0.0 | 0.0 | 0.00 | 0.31 | 0.00 | 95 | 985.0 |
| 20260503013921 | 53 | 349 | 0.0 | 0.0 | 0.00 | 0.31 | 0.00 | 95 | 985.1 |
| 20260503012918 | 53 | 0 | 0.0 | 0.0 | 0.00 | 0.31 | 0.00 | 95 | 985.3 |
| 20260503011921 | 53 | 338 | 0.0 | 0.0 | 0.00 | 0.31 | 0.00 | 95 | 985.5 |
| 20260503005920 | 53 | 0 | 0.0 | 0.0 | 0.00 | 0.31 | 0.00 | 95 | 985.7 |
| 20260503004920 | 53 | 0 | 0.0 | 0.0 | 0.00 | 0.31 | 0.00 | 95 | 985.8 |
| 20260503002918 | 53 | 0 | 0.0 | 0.0 | 0.00 | 0.31 | 0.00 | 95 | 985.9 |
| 20260502235919 | 53 | 338 | 0.0 | 0.0 | 0.00 | 0.31 | 0.00 | 95 | 986.3 |
| 20260502234920 | 53 | 338 | 0.0 | 0.0 | 0.00 | 0.31 | 0.00 | 95 | 986.2 |
| 20260502233922 | 53 | 338 | 0.0 | 0.0 | 0.00 | 0.31 | 0.00 | 94 | 986.3 |
| 20260502231920 | 53 | 0 | 0.0 | 0.0 | 0.00 | 0.31 | 0.00 | 94 | 986.2 |
| 20260502230922 | 53 | 0 | 0.0 | 0.0 | 0.00 | 0.31 | 0.00 | 94 | 986.3 |
| 20260502223925 | 53 | 350 | 0.0 | 0.9 | 0.00 | 0.31 | 0.00 | 94 | 986.3 |
| 20260502221924 | 53 | 0 | 0.0 | 0.0 | 0.00 | 0.31 | 0.00 | 94 | 986.5 |
| 20260502220925 | 54 | 338 | 0.9 | 0.9 | 0.00 | 0.31 | 0.00 | 93 | 986.6 |
| 20260502215927 | 54 | 0 | 0.0 | 0.0 | 0.00 | 0.31 | 0.31 | 93 | 986.6 |
| 20260502212925 | 55 | 338 | 0.0 | 0.0 | 0.01 | 0.31 | 0.31 | 93 | 986.6 |